Wind_Speed
9 8 7 6 7 7 4 4 5 3 2 2 4 5 6 7 7 6 5 4 4 3 4 4 5 7 7 6 6 6 6 5 5 4 3 3 4 4 4 4 4 3 2 4 5 7 10 12 13
12 11 10 10 12 9 5 6 8 5 1 2 5 6 6 7 7 8 7 6 5 5 6 6 7 6 7 8 8 8 8 9 8 7 6 5 6 6 5 4 4 4 4 3 4 6 7 9 12
16 15 14 15 16 12 10 8 10 6 3 2 4 9 9 7 8 10 9 7 7 7 8 7 7 7 8 8 8 8 10 11 11 11 10 9 9 9 8 7 4 4 5 5 5 5 6 6 8
18 18 18 19 19 16 15 15 14 11 7 6 7 9 10 9 10 10 10 10 10 9 9 8 8 8 8 8 9 10 10 10 11 12 12 13 13 11 11 10 8 7 6 6 6 7 6 7 8
17 19 20 22 23 21 20 20 18 15 12 11 11 11 13 11 11 12 12 12 12 12 11 10 9 9 9 9 9 9 10 10 11 11 11 12 13 14 13 13 11 9 9 8 8 7 8 8 7
15 16 18 22 27 24 22 22 20 20 17 16 15 15 15 14 14 13 15 15 16 14 14 13 12 12 12 11 11 11 11 11 11 12 13 13 12 13 14 14 15 13 12 11 10 10 9 9 9
13 15 16 21 23 24 24 25 23 21 20 19 20 19 20 18 15 15 16 18 19 18 18 17 16 16 15 15 14 14 14 14 14 14 14 14 15 15 14 14 15 16 15 15 14 12 13 12 12
13 14 15 18 20 20 21 23 25 25 23 23 23 22 22 21 19 19 19 20 21 19 19 20 19 19 18 18 18 17 17 17 17 17 17 17 17 17 18 18 17 17 17 17 17 16 16 15 15
14 14 16 15 17 16 18 21 22 23 24 23 24 24 24 23 20 19 18 18 21 21 21 21 21 20 20 20 20 20 20 20 20 19 20 20 20 20 20 21 21 21 20 20 19 18 18 17 17
14 16 17 19 17 18 19 20 20 19 19 21 23 24 23 21 21 20 19 19 20 22 22 24 24 24 23 23 23 22 22 21 21 21 22 22 22 22 22 22 22 22 22 22 22 22 21 19 19
14 16 18 19 17 17 18 19 19 17 17 20 21 21 20 20 20 21 21 21 21 22 23 25 25 25 24 24 24 24 23 23 23 23 24 24 24 24 24 24 24 23 23 23 23 23 23 22 21
14 15 16 16 15 14 14 15 16 16 17 18 19 20 20 20 20 22 22 22 22 23 24 26 25 25 24 24 24 24 25 25 25 25 25 25 25 25 25 25 26 26 24 24 24 23 24 24 24
12 13 12 12 11 11 10 10 12 13 14 16 17 18 19 18 19 20 20 19 20 21 22 25 27 25 25 26 26 26 26 25 24 24 23 22 22 22 22 22 23 24 25 26 26 25 25 25 26
11 11 10 9 8 7 5 5 5 7 7 9 10 11 12 13 13 14 15 15 16 16 17 17 19 20 21 23 24 24 24 23 22 22 22 22 22 23 23 23 23 24 25 25 26 27 27 27 27
11 11 10 10 9 8 7 7 8 7 8 9 10 11 12 13 14 14 16 17 17 17 18 18 18 18 20 21 22 22 22 21 20 21 21 21 22 23 24 24 24 25 25 26 26 27 28 29 29
12 12 11 11 10 10 9 10 12 11 10 11 12 13 14 15 15 16 16 18 18 19 18 19 20 20 22 22 22 22 21 21 21 21 21 22 22 23 24 25 25 26 26 27 27 28 28 29 30
14 13 13 12 10 11 10 11 11 11 10 11 12 13 14 14 15 16 16 17 18 19 18 19 19 20 21 21 21 21 22 22 22 22 23 23 24 24 25 26 26 27 28 29 29 30 30 30 31
16 15 14 13 13 12 9 11 10 10 9 10 10 12 13 12 14 15 16 18 18 19 19 19 18 19 20 20 21 22 23 23 24 25 25 26 26 26 26 27 28 28 30 31 32 32 32 32 32
20 19 17 18 17 15 14 12 14 13 12 14 14 15 16 18 17 17 16 16 18 20 20 20 21 22 22 23 23 25 26 27 27 27 27 28 29 29 29 29 30 30 30 32 33 35 35 35 34
23 22 22 23 22 21 20 16 19 20 19 19 19 20 22 22 21 21 21 20 20 21 22 23 23 25 26 27 27 28 29 28 28 29 30 30 31 31 31 31 31 32 33 33 34 35 37 38 38
26 26 26 28 28 27 25 22 23 24 25 25 26 25 26 26 26 25 24 23 22 23 24 24 25 27 28 28 28 29 30 30 31 31 31 32 32 32 32 32 32 33 34 34 35 35 37 39 40
28 29 30 32 32 31 30 31 24 28 28 29 29 29 29 29 28 27 27 26 27 27 26 27 27 29 29 29 30 30 31 31 32 32 32 32 32 33 33 34 34 35 36 36 36 37 37 38 39
29 30 32 34 35 35 32 37 28 29 29 29 29 29 28 29 30 30 30 30 30 30 30 30 30 31 32 32 33 33 34 34 34 35 34 35 35 35 35 35 36 36 38 39 39 39 39 39 38
30 30 33 35 35 38 33 35 33 29 28 29 28 28 28 29 29 29 29 30 32 33 34 34 34 34 34 35 36 36 36 36 38 38 38 38 39 39 38 39 39 39 39 40 40 41 41 41 41
29 30 33 36 35 36 35 36 33 32 30 29 30 30 30 30 30 30 30 32 34 35 36 37 36 36 38 39 39 39 40 41 42 42 43 42 42 42 42 43 42 42 42 42 42 42 42 43 42
29 30 32 36 36 37 38 40 37 35 35 33 31 32 32 32 33 34 34 35 36 38 39 39 39 40 40 40 41 43 45 47 47 47 47 47 47 46 45 45 45 46 45 44 44 44 43 43 44
31 32 34 37 39 41 41 40 40 37 37 37 37 36 36 35 35 36 38 39 40 41 42 44 45 45 45 44 45 46 47 49 50 50 50 51 52 51 49 50 46 46 46 46 46 46 45 44 44
32 33 33 35 39 43 44 44 44 43 39 39 38 38 38 38 39 39 39 40 42 43 45 47 48 48 50 50 50 50 51 52 54 53 53 53 54 54 54 52 50 48 46 46 46 47 46 45 45
33 34 36 39 43 43 43 42 42 40 39 40 40 39 40 40 40 40 40 41 42 42 43 44 46 47 49 51 53 54 55 54 54 55 58 58 56 57 54 51 50 49 48 48 48 47 47 47 46
35 35 36 39 40 40 41 42 39 37 37 38 40 42 41 41 42 43 43 43 44 44 45 46 47 48 49 51 53 54 54 56 58 55 58 59 56 58 59 55 55 57 56 54 51 52 53 50 49
Wind_Direction
248 244 241 238 254 261 308 301 274 246 197 247 242 199 183 181 176 190 204 194 221 236 240 242 248 243 242 242 245 248 249 256 270 281 306 325 307 297 308 311 272 278 335 17 33 42 36 37 34
258 250 252 255 259 269 284 318 278 275 125 232 245 245 217 199 199 211 222 221 235 247 251 247 245 250 250 248 251 253 257 258 259 268 284 296 293 293 291 297 307 283 283 311 340 3 27 24 23
258 256 255 257 264 268 271 264 270 264 254 247 248 246 233 225 219 231 234 233 240 249 256 257 258 256 255 254 253 257 258 255 259 264 269 275 283 278 279 278 288 324 326 314 322 332 349 3 13
262 259 256 259 260 261 262 259 262 268 267 263 252 251 248 237 237 245 248 250 252 254 254 256 257 256 261 263 261 258 255 256 261 266 269 271 271 272 266 270 271 284 300 325 334 330 331 347 344
266 263 259 260 260 260 261 261 262 264 261 261 263 258 253 241 237 242 249 250 253 250 250 249 254 260 261 261 261 262 265 263 264 269 272 273 269 263 258 260 265 272 282 289 302 313 332 338 315
271 270 264 258 263 260 258 261 263 259 256 258 262 264 260 253 247 247 250 252 253 254 255 258 260 261 261 264 265 266 267 267 269 270 272 272 271 264 257 256 259 265 274 277 284 294 300 302 314
272 273 269 265 266 267 264 259 256 255 256 257 261 263 262 255 254 257 259 260 258 258 259 258 258 259 261 262 263 264 265 266 268 268 268 268 266 265 263 262 260 263 266 273 276 278 284 289 295
268 272 274 276 273 271 270 264 257 251 249 254 259 262 262 256 253 259 262 260 261 257 257 257 257 257 257 258 260 263 265 267 267 268 268 268 267 266 264 262 263 264 266 270 273 273 274 279 283
272 272 273 279 280 276 265 262 262 258 253 252 255 258 258 260 257 260 260 257 257 259 258 258 258 260 260 260 261 262 263 264 267 269 269 269 268 268 267 265 263 262 263 265 268 271 271 271 274
277 274 272 271 273 271 266 263 264 264 258 252 251 254 257 259 257 257 259 258 257 258 258 259 260 261 260 259 259 261 263 264 266 266 266 267 267 268 267 267 266 265 264 264 264 265 267 268 267
282 276 274 270 269 266 261 260 262 264 259 253 251 255 256 257 255 255 258 258 259 261 260 260 260 260 258 259 259 259 260 261 261 264 266 267 268 268 267 268 268 267 266 265 264 263 263 264 265
281 281 276 270 268 263 264 261 259 260 259 256 254 255 257 258 258 258 260 260 257 258 259 260 259 256 256 257 257 257 258 260 263 264 265 266 268 269 269 268 267 266 266 266 265 264 263 263 263
281 282 275 273 271 267 265 267 262 254 257 257 257 258 262 262 263 262 259 256 255 255 255 255 257 256 255 255 256 256 257 258 261 263 266 268 270 270 270 271 269 269 266 264 263 263 263 262 261
274 272 270 269 267 268 272 270 256 244 236 246 251 255 262 265 265 265 265 257 251 249 250 251 251 253 251 251 252 253 255 257 261 265 268 272 272 273 273 273 271 270 269 266 264 261 261 261 261
262 264 266 269 266 264 261 265 261 257 253 254 257 260 264 265 265 264 263 262 259 254 252 253 252 253 254 253 254 256 257 258 263 268 271 273 275 275 274 274 273 271 269 268 266 264 261 259 259
251 257 262 268 262 263 258 261 263 268 260 263 267 268 267 266 264 263 263 262 260 258 255 255 253 253 254 255 256 256 256 258 262 265 268 271 273 274 274 274 273 272 271 269 268 266 265 262 260
249 252 251 256 259 258 255 255 263 266 264 265 268 272 272 272 270 266 263 261 260 258 255 254 254 254 254 255 254 255 257 258 262 266 269 270 271 272 274 274 273 272 270 270 268 268 267 266 264
250 246 248 248 249 253 246 250 249 257 258 262 262 267 274 271 273 271 268 265 262 260 256 255 254 253 254 255 256 256 257 261 265 268 269 270 272 273 274 275 275 273 270 268 267 266 266 266 266
251 251 250 250 249 238 245 244 255 255 256 264 271 274 272 270 269 271 270 268 266 264 263 260 257 256 255 256 258 260 264 266 268 268 269 270 272 274 275 275 275 274 272 270 268 266 265 266 266
255 256 257 254 251 252 247 248 259 264 262 266 269 271 270 270 267 267 267 265 264 263 261 260 260 259 260 260 263 264 266 268 269 269 270 270 271 273 274 275 275 275 274 271 269 267 265 265 265
255 259 259 262 262 262 260 254 260 267 267 269 272 272 270 270 271 269 266 266 265 265 265 265 262 261 261 262 263 264 266 268 269 270 271 272 273 274 274 275 276 276 275 274 271 269 267 266 265
258 259 260 263 266 267 268 269 261 266 268 270 271 273 271 270 270 268 267 267 265 266 266 265 265 264 265 266 267 268 270 271 273 274 275 275 276 276 277 276 276 276 275 273 272 269 267 266 265
262 263 265 267 268 270 272 276 274 267 268 269 271 272 270 268 268 269 269 268 267 267 267 266 265 265 265 267 269 270 272 273 275 275 276 277 277 278 278 279 279 278 277 276 272 270 268 266 265
263 264 265 267 270 271 275 275 278 277 274 275 273 272 272 272 270 268 268 268 266 266 267 267 266 266 267 267 268 269 272 273 274 274 275 277 277 277 278 279 279 278 278 276 274 271 269 267 266
267 268 271 271 272 276 278 276 278 281 277 275 275 274 273 271 270 268 267 265 265 265 267 268 267 266 267 266 266 268 270 271 272 273 273 274 274 274 274 275 277 277 276 275 274 272 268 266 265
267 268 270 274 277 277 277 278 282 280 282 282 278 275 272 269 268 268 268 266 263 262 262 263 263 264 264 263 264 268 270 272 272 272 271 272 273 272 271 274 277 276 275 273 273 272 270 266 264
267 267 269 272 275 277 278 281 281 282 285 285 282 279 277 274 270 269 268 267 266 265 263 261 261 261 262 263 264 267 268 267 268 270 269 270 271 272 272 275 277 276 276 273 271 270 269 268 266
267 268 270 271 274 275 275 278 280 282 282 281 283 283 279 276 276 275 274 271 268 267 267 267 266 265 265 264 264 265 264 267 267 267 267 267 268 270 273 278 278 276 275 273 271 271 270 269 268
270 271 273 273 273 277 277 279 283 287 287 287 285 283 281 281 281 278 276 274 273 272 269 268 268 268 267 266 266 267 266 263 264 265 268 268 268 270 274 273 276 279 278 272 269 271 270 268 268
274 274 272 273 275 276 279 280 283 285 283 279 279 280 279 279 278 278 278 277 277 275 272 270 270 269 268 267 267 265 263 262 262 262 268 268 269 265 272 272 272 274 276 273 272 271 272 273 270
Height
5825 5824 5824 5823 5825 5823 5823 5824 5822 5823 5823 5823 5824 5825 5827 5827 5828 5829 5828 5828 5828 5829 5829 5830 5831 5832 5832 5833 5834 5834 5835 5835 5836 5836 5835 5835 5835 5835 5835 5834 5834 5833 5832 5832 5831 5830 5829 5827 5826
5823 5823 5822 5821 5822 5822 5824 5823 5822 5822 5822 5823 5823 5824 5825 5827 5827 5827 5827 5828 5828 5828 5829 5829 5830 5830 5831 5831 5832 5833 5833 5834 5835 5835 5834 5834 5834 5834 5834 5834 5833 5833 5832 5831 5831 5830 5829 5828 5827
5819 5820 5820 5819 5818 5820 5822 5822 5821 5821 5821 5822 5823 5823 5824 5826 5826 5825 5826 5826 5827 5827 5827 5827 5827 5828 5829 5830 5830 5831 5832 5833 5833 5833 5833 5833 5833 5833 5833 5833 5833 5832 5832 5831 5830 5830 5829 5828 5827
5817 5818 5818 5816 5816 5818 5818 5819 5819 5819 5819 5820 5821 5821 5822 5824 5824 5824 5824 5824 5825 5825 5825 5825 5826 5826 5827 5827 5828 5829 5830 5830 5830 5830 5830 5831 5831 5831 5831 5831 5831 5831 5831 5830 5830 5829 5828 5828 5826
5812 5813 5814 5812 5812 5814 5815 5815 5816 5817 5818 5818 5818 5819 5819 5822 5822 5822 5822 5822 5823 5823 5823 5824 5824 5824 5825 5825 5826 5826 5827 5827 5827 5827 5828 5828 5828 5829 5829 5829 5829 5829 5829 5829 5828 5828 5827 5826 5824
5809 5810 5810 5808 5807 5810 5811 5811 5813 5813 5814 5815 5815 5816 5817 5818 5819 5820 5819 5820 5820 5821 5821 5821 5822 5822 5822 5823 5823 5824 5824 5824 5824 5825 5825 5826 5826 5826 5827 5827 5827 5827 5826 5826 5827 5826 5827 5825 5824
5806 5806 5806 5804 5804 5805 5806 5806 5808 5809 5809 5811 5811 5812 5813 5815 5816 5816 5816 5816 5817 5818 5818 5819 5819 5819 5819 5820 5820 5820 5821 5821 5821 5822 5822 5823 5823 5824 5824 5824 5824 5824 5824 5824 5824 5824 5824 5824 5823
5803 5803 5802 5801 5800 5802 5802 5800 5801 5803 5806 5806 5806 5807 5809 5810 5812 5812 5812 5812 5812 5814 5814 5815 5815 5816 5816 5816 5816 5816 5817 5818 5818 5819 5819 5819 5820 5820 5820 5821 5821 5821 5821 5821 5821 5821 5821 5821 5821
5799 5799 5798 5798 5796 5797 5797 5796 5796 5798 5800 5802 5802 5802 5803 5805 5807 5808 5808 5808 5808 5808 5810 5810 5811 5812 5812 5812 5812 5813 5813 5813 5814 5815 5815 5816 5816 5816 5816 5817 5817 5817 5817 5817 5818 5818 5818 5818 5818
5796 5795 5794 5794 5794 5793 5792 5792 5792 5794 5795 5796 5797 5797 5798 5801 5802 5803 5804 5804 5804 5804 5805 5805 5806 5807 5807 5807 5808 5808 5809 5809 5809 5810 5810 5811 5811 5812 5812 5813 5813 5813 5813 5813 5813 5814 5814 5814 5814
5792 5791 5790 5790 5790 5789 5788 5788 5788 5789 5790 5790 5791 5793 5794 5795 5797 5798 5799 5800 5799 5799 5799 5799 5801 5801 5802 5803 5803 5803 5804 5804 5805 5805 5806 5806 5806 5807 5807 5808 5808 5808 5808 5808 5809 5809 5809 5810 5810
5789 5787 5787 5786 5786 5785 5784 5784 5784 5785 5786 5786 5787 5788 5789 5790 5791 5793 5794 5794 5794 5794 5794 5793 5795 5796 5797 5798 5798 5799 5799 5799 5800 5800 5800 5801 5801 5801 5802 5802 5802 5803 5803 5803 5804 5804 5804 5805 5805
5785 5785 5784 5783 5782 5782 5781 5780 5781 5781 5782 5783 5783 5784 5785 5785 5785 5786 5788 5789 5789 5789 5788 5788 5788 5791 5791 5792 5792 5793 5794 5794 5794 5795 5795 5795 5796 5796 5796 5796 5797 5797 5797 5798 5798 5799 5799 5799 5800
5782 5782 5781 5780 5780 5780 5779 5778 5779 5779 5779 5780 5781 5781 5781 5781 5781 5781 5781 5783 5784 5784 5784 5784 5784 5785 5785 5786 5787 5788 5789 5789 5790 5790 5790 5790 5791 5791 5791 5791 5791 5791 5791 5791 5792 5793 5794 5794 5795
5779 5779 5779 5778 5778 5778 5777 5777 5777 5778 5778 5778 5778 5778 5779 5779 5778 5779 5778 5778 5778 5779 5779 5779 5780 5781 5781 5782 5783 5783 5784 5784 5785 5785 5785 5786 5786 5785 5785 5785 5785 5785 5785 5786 5786 5787 5787 5788 5789
5776 5777 5776 5776 5775 5775 5775 5775 5774 5775 5775 5775 5775 5775 5775 5775 5775 5775 5774 5774 5774 5774 5775 5775 5776 5777 5777 5777 5778 5779 5779 5780 5780 5781 5781 5781 5781 5780 5780 5780 5780 5779 5779 5780 5780 5780 5781 5782 5782
5772 5773 5773 5772 5772 5772 5772 5772 5772 5772 5772 5772 5772 5772 5771 5771 5771 5771 5771 5770 5770 5770 5770 5771 5771 5772 5772 5772 5773 5774 5775 5775 5776 5776 5776 5776 5776 5776 5775 5774 5774 5773 5773 5773 5773 5774 5774 5775 5775
5769 5769 5769 5769 5769 5768 5769 5769 5769 5769 5769 5768 5768 5768 5768 5767 5767 5766 5767 5766 5765 5765 5765 5766 5766 5767 5767 5768 5768 5769 5770 5771 5771 5770 5770 5770 5770 5770 5770 5769 5768 5768 5767 5767 5766 5767 5767 5768 5768
5764 5764 5765 5765 5765 5765 5766 5766 5765 5766 5766 5765 5765 5764 5763 5763 5763 5762 5762 5762 5761 5760 5761 5761 5761 5762 5762 5763 5763 5764 5764 5764 5764 5764 5764 5764 5764 5764 5763 5762 5762 5762 5761 5760 5760 5760 5760 5760 5761
5758 5759 5760 5760 5760 5760 5761 5762 5760 5760 5761 5760 5759 5759 5758 5758 5758 5757 5756 5756 5756 5755 5755 5755 5755 5755 5756 5756 5757 5757 5757 5757 5757 5757 5757 5757 5757 5756 5756 5755 5755 5755 5754 5753 5752 5752 5752 5752 5753
5753 5753 5753 5753 5753 5753 5755 5757 5756 5754 5754 5754 5753 5753 5753 5752 5751 5751 5750 5750 5749 5749 5749 5749 5749 5748 5749 5749 5749 5749 5749 5749 5749 5749 5749 5749 5749 5748 5748 5747 5747 5746 5746 5745 5745 5745 5744 5744 5744
5746 5746 5746 5746 5745 5746 5747 5746 5751 5749 5748 5747 5747 5746 5746 5745 5744 5744 5743 5743 5742 5742 5742 5741 5741 5741 5742 5742 5742 5742 5741 5742 5742 5741 5741 5741 5741 5740 5740 5739 5739 5738 5738 5737 5737 5736 5736 5736 5736
5740 5739 5739 5739 5738 5737 5740 5736 5743 5742 5741 5740 5739 5739 5738 5737 5736 5736 5736 5735 5735 5735 5734 5734 5734 5734 5734 5734 5733 5734 5733 5734 5733 5733 5733 5733 5732 5732 5731 5730 5730 5730 5729 5728 5728 5727 5727 5727 5728
5732 5732 5731 5730 5730 5728 5732 5730 5730 5732 5732 5732 5731 5730 5729 5729 5728 5728 5728 5727 5727 5726 5726 5726 5726 5725 5726 5725 5724 5724 5725 5725 5724 5724 5724 5724 5723 5723 5722 5722 5721 5721 5720 5719 5718 5718 5718 5718 5718
5725 5725 5723 5722 5722 5721 5721 5721 5722 5722 5723 5724 5723 5723 5722 5721 5721 5720 5719 5719 5718 5718 5717 5717 5717 5716 5716 5716 5715 5715 5715 5714 5714 5714 5714 5714 5713 5713 5712 5711 5711 5711 5710 5709 5708 5707 5707 5708 5708
5717 5717 5716 5712 5713 5713 5711 5709 5712 5712 5712 5712 5713 5713 5713 5713 5712 5711 5710 5709 5708 5708 5707 5706 5706 5705 5705 5705 5705 5705 5704 5703 5701 5701 5701 5701 5702 5702 5701 5700 5700 5699 5698 5697 5697 5696 5696 5697 5697
5709 5709 5708 5706 5704 5701 5702 5701 5701 5701 5701 5701 5701 5701 5701 5701 5702 5702 5701 5699 5698 5697 5696 5695 5694 5693 5693 5692 5693 5693 5692 5691 5690 5689 5688 5688 5688 5687 5688 5688 5688 5687 5686 5685 5685 5684 5684 5685 5686
5699 5700 5699 5697 5694 5692 5691 5690 5689 5689 5690 5688 5688 5687 5687 5687 5687 5687 5687 5687 5686 5685 5684 5682 5681 5681 5680 5679 5679 5678 5678 5678 5677 5676 5675 5675 5674 5675 5675 5675 5675 5674 5673 5672 5672 5672 5672 5673 5674
5691 5689 5688 5687 5685 5683 5680 5681 5679 5680 5678 5676 5675 5674 5673 5673 5673 5672 5671 5671 5670 5670 5669 5668 5667 5666 5665 5664 5664 5663 5662 5662 5662 5662 5660 5660 5661 5660 5661 5661 5661 5660 5660 5660 5659 5659 5660 5660 5661
5680 5679 5677 5675 5675 5672 5671 5671 5670 5669 5667 5665 5663 5661 5660 5659 5659 5658 5657 5656 5655 5654 5653 5652 5651 5650 5649 5648 5647 5647 5646 5647 5647 5647 5647 5647 5647 5648 5647 5647 5647 5647 5647 5647 5646 5645 5646 5647 5648